STARLINK-1899 (46787 NORAD) Tracking and Keplerian Element Data

This shows tracking and keplerian element data for the satellite.

Feedback or suggestion? Click here.




ElementValue
Catalog46787
NameSTARLINK-1899
Epoch Orbit481
Epoch Day328.16667824
Epoch Year2020
RAAN15.4726
Inclination53.0557
Eccentricity0.0001193
Argument of Perigee65.2438
Mean Anonmoly167.1414
Mean Motion15.62784945
Decay Rate0.00028054
L11 46787U 20074BA 20328.16667824 .00028054 00000-0 31078-3 0 9991
L22 46787 53.0557 15.4726 0001193 65.2438 167.1414 15.62784945 4814

Live tracking and technical data element details for STARLINK-1899 (NORAD 46787). STARLINK-1899 can be tracked NOW for your location showing map with azimuth and elevation plus other details from your city location.

Track the satellite on the map from your city or location and see movement details for azimuth, elevation, latitude, longitude, range, height, and movement on the map or in text.







IsCatalogInMostPopularTable: catalog: 46787, numindb: 7
Update: records affected: 1



GetName: 46787 STARLINK-1899

Hit Count: updated at: Tue, 24 Nov 2020 11:37:33 GMT